sat.trackr.live / text

‹ back to catalog

SENTINEL-1C

NORAD 62261 · 2024-235A

PAYLOAD ACTIVE UNKNOWN

§ Identity

Operator
Country
ESA
Launch date
2024-12-05
Launch site
FRGUI
Launch vehicle
Mass (kg)
RCS (m²)

External: N2YO · Heavens-Above · Gunter

§ Orbital elements

Epoch: 2026-05-25T03:43:50.896416Z

Period
98.68 min
Inclination
98.1817°
Eccentricity
0.0001300
Mean motion
14.59197689 rev/d
Perigee alt
694.8 km
Apogee alt
696.7 km
Semi-major
7,073.9 km
B*
-2.1622e-5
RAAN
152.7984°
Arg perigee
89.9067°
Mean anomaly
270.2282°
Rev number
7,805

§ Raw data

SENTINEL-1C1 62261U 24235A   26145.15545019 -.00000148  00000+0 -21622-4 0  99922 62261  98.1817 152.7984 0001300  89.9067 270.2282 14.59197689 78054

JSON: /api/v1/satellites/62261 · /tle

For live sub-satellite position, see the globe view (requires WebGL).

§ Visibility from observer

Set your observer location to see the next 7 days of passes ≥ 10°. The values pass through the URL so the page stays shareable.

No JS? Fill the form by hand. The geolocation button needs JavaScript.